Weather Roundup
Issued by NWS Springfield, MO

Home | Current Version | Previous Version | Text Only | Print | Product List | Glossary On
Versions: 1 2 3 4 5 6 7 8 9 10 11 12 13 14 15 16 17 18 19 20 21 22 23 24 25 26 27 28 29 30 31 32 33 34 35 36 37 38 39 40 41 42 43 44 45 46 47 48 49 50
000
NZUS99 KSGF 251207
HRRSGF

HOURLY WEATHER
NATIONAL WEATHER SERVICE SPRINGFIELD MO
700 AM CDT FRI JUL 25 2014

......SGF CWA......

CITY           SKY/WX    TMP DP  RH WIND       PRES   REMARKS
SPRINGFIELD    PTCLDY    66  59  78 S13       30.02R
6HR MIN TEMP:  66; 6HR MAX TEMP:  69;

JOPLIN         PTCLDY    72  68  87 S9        29.99R
6HR MIN TEMP:  69; 6HR MAX TEMP:  72;

WEST PLAINS    MOCLDY    64  56  75 S5        30.09R
6HR MIN TEMP:  61; 6HR MAX TEMP:  65;

ROLLA            N/A     65  56  72 S14       30.03R
6HR MIN TEMP:  62; 6HR MAX TEMP:  66;

OSAGE BEACH    PTCLDY    64  55  72 S8        30.01S
BRANSON        MOCLDY    66  63  88 S6        30.05S

......SURROUNDING SGF CWA......

CITY           SKY/WX    TMP DP  RH WIND       PRES   REMARKS
CHANUTE        CLEAR     72  70  93 S13       29.94R
PARSONS        CLEAR     72  69  90 S8        29.96R
COFFEYVILLE    CLEAR     73  71  93 S12       29.95R
EMPORIA        PTCLDY    74  69  85 S18       29.88S
GROVE OK       CLEAR     72  72 100 S5        30.00R
ROGERS AR      CLOUDY    69  67  93 SE9       30.04R
SILOAM SPRINGS CLEAR     70  63  78 S6        30.03R
HARRISON AR    MOCLDY    65  62  90 SE9       30.06R
NEAR YELLVILLE PTCLDY    61  59  94 E3        30.07R

......KANSAS AND MISSOURI......

CITY           SKY/WX    TMP DP  RH WIND       PRES   REMARKS
KANSAS CTY INT CLOUDY    74  66  76 S13       29.91R
DOWNTOWN KC    MOCLDY    74  65  73 S9G23     29.91R
COLUMBIA       CLOUDY    64  56  75 S8        30.02R
SEDALIA        MOCLDY    69  58  67 S8        29.99R
ST JOSEPH      CLOUDY    72  64  76 S12       29.87F
ST LOUIS       CLOUDY    69  57  65 S7        30.05R
SPIRIT OF STL  CLOUDY    63  57  81 S3        30.04R
KIRKSVILLE     CLOUDY    64  55  72 E10       29.98S
WICHITA        PTCLDY    73  68  84 S12       29.91S
TOPEKA         CLOUDY    78  71  79 S6        29.86S
OLATHE         MOCLDY    70  66  87 S10       29.92R

......TENNESSEE......

CITY           SKY/WX    TMP DP  RH WIND       PRES   REMARKS
MEMPHIS        PTCLDY    68  60  75 E6        30.05R
NASHVILLE      MOSUNNY   63  60  90 S3        30.07F

......ARKANSAS.......

CITY           SKY/WX    TMP DP  RH WIND       PRES   REMARKS
FAYETTEVILLE   CLOUDY    70  69  97 S5        30.03S
FT SMITH       PTCLDY    72  70  93 E6        30.01S FOG
LITTLE ROCK    MOCLDY    65  62  90 CALM      30.06R

......OKLAHOMA.......

CITY           SKY/WX    TMP DP  RH WIND       PRES   REMARKS
TULSA          PTCLDY    74  71  91 S12       29.96R
PONCA CITY     CLEAR     73  68  84 S6        29.94R
MCALESTER      CLOUDY    74  71  91 S10G16    30.02S FOG
OKLAHOMA CITY  PTCLDY    71  67  87 S7        29.99S

......IOWA............

CITY           SKY/WX    TMP DP  RH WIND       PRES   REMARKS
DES MOINES     LGT RAIN  66  60  81 E13       29.94F
QUAD CITIES    LGT RAIN  62  58  86 CALM      30.09R

......ILLINOIS........

CITY           SKY/WX    TMP DP  RH WIND       PRES   REMARKS
QUINCY         CLOUDY    63  56  78 E5        30.06R
CHICAGO        CLOUDY    62  48  60 W9        30.09R



USA.gov is the U.S. government's official web portal to all federal, state and local government web resources and services.